Погода в Трошкове

Россия / Свердловская область     57°19′17″N   64°24′27″E
темп.,
°C
ветер,
м/с
пор.,
м/с
влажн.,
%
обл.,
%
осадки,
мм/ч
давл.,
гПа
погр.,
м
23 октября, сб
сб2323:00+5ююз61699100 1.9 998587
02:00+7юз61595100 2.3 997792
05:00+8зюз7158799 2.6 998806
08:00+8зюз615867 0.0 999758
11:00+9зюз61483100 0.0 1001817
14:00+9зюз61381100 0.1 1002959
17:00+9зюз614695 0.2 1004618
20:00+7зюз514735 0.0 1006608
24 октября, вс
вс2423:00+6зюз513795 0.0 1008500
02:00+5юз413835 0.0 1010413
05:00+4юз413864 0.0 1011408
08:00+4зюз4119149 0.0 1011314
11:00+6юз4981100 0.0 1011415
14:00+8ююз4780100 0.1 1010926
17:00+5всв3596100 3.3 1006256
20:00+6юв2899100 2.7 1002392
25 октября, пн
пн2523:00+4зсз51196100 3.1 1005913
02:00+4з61187100 0.1 10071038
05:00+4з51169100 0.1 10081168
08:00+4зюз51076100 0.0 1009705
11:00+5зюз487384 0.0 1011833
14:00+5зюз4672100 0.0 10111059
17:00+4юз3778100 0.1 1009387
20:00+3ююз3886100 0.0 1008367
26 октября, вт
вт2623:00+3зюз3793100 0.3 1006514
02:000ссз61297100 0.9 1006691
05:00−1сз61285100 1.8 10081214
08:00−3сз61284100 0.1 1010885
11:00−1зсз7127134 0.1 10121169
14:000зсз6106333 0.0 10141433
17:00−1зсз5106845 0.1 1016786
20:00−2з411725 0.0 1018631
27 октября, ср
ср2723:00−3зюз397750 0.0 1018418
02:00−3зюз387984 0.0 1018360
05:00−2юз3788100 0.0 1019417
08:00−1ююз3895100 0.4 1018461
11:00+1юз478596 0.5 1017623
14:00+2юз4782100 0.0 1017769
17:00+1ююз41096100 0.1 1016554
20:00+1юз41096100 0.1 1016558